Location: Montclair
(37.8322°N, 122.2092°W)
Time: 15:07:38
(UTC+00:00)

Cosmos 1544 Rocket - Pass Details

Date: 08 September 2024
Orbit: 601 x 625 km, 82.5° (Epoch: 07 October)

Event Time Altitude Azimuth Distance (km) Brightness Sun altitude
Exits shadow 12:05:21 49° 232° (SW) 789 3.6 -19.8°
Maximum altitude 12:06:11 59° 278° (W) 701 3.5 -19.6°
Drops below altitude 10° 12:10:30 10° 359° (N) 1,970 6.4 -18.9°
Sets 12:12:46 0° 3° (N) 2,883 7.3 -18.4°
